Tracking 19484 objects as of 20-Jan-2019
HD Live streaming from Space Station
objects crossing your sky now

FENGYUN 1C DEB

Track FENGYUN 1C DEB now!
10-day predictions


NORAD ID: 31771
Int'l Code: 1999-025CFW
Perigee: 752.3 km
Apogee: 791.2 km
Inclination: 102.8 °
Period: 100.1 minutes
Semi major axis: 7142 km
RCS: 0.0073 m2 (small)
Launch date: May 10, 1999
Source: People's Republic of China (PRC)
Launch site: Taiyaun Space Center, China (TSC)

Note: This is SATELLITE DEBRIS
aabbcc
Your satellite tracking list
Your tracking list is empty




NASA's NSSDC Master Catalog

Two Line Element Set (TLE):
1 31771U 99025CFW 19019.75565732  .00001535  00000-0  53129-3 0  9991
2 31771 102.8049 234.3968 0027201  15.6331 344.5673 14.38144931607723
Source of the keplerian elements: AFSPC